[[{"header":{"parameterUnit":"m.s-1","parameterCategory":1,"la1":30.2991,"la2":30.254,"lo1":-89.0895,"lo2":-89.0444,"dy":0.0017,"dx":0.0017,"nx":28,"ny":28,"refTime":"2023-10-02T03:00:00:Z","depth":0,"parameterNumber":2,"parameterNumberName":"U-component_of_WINDS"},"data":[0,0,0,0,0,0,0,0,0,0,0,0,0,0,0,0,0,0,0,0,0,0,0,0,0,0,0,0,0,0,0,0,0,0,0,0,0,0,0,0,0,0,0,0,0,0,0,0,0,0,0,0,0,0,0,0,0,0,-5.3845,-5.3845,0,-5.385,-5.385,-5.385,-5.3674,-5.367,-5.3665,-5.3661,-5.3665,-5.3669,-5.3673,0,0,0,0,0,0,0,0,0,0,0,0,0,-5.3685,-5.3689,-5.3845,-5.3845,-5.3845,-5.385,-5.385,-5.385,-5.3675,-5.3669,-5.3664,-5.3658,-5.3663,-5.3668,-5.3674,0,0,0,0,0,0,0,0,0,0,0,0,0,-5.3728,-5.369,-5.3845,-5.3759,-5.3751,-5.385,-5.385,-5.385,-5.3676,-5.3669,-5.3662,-5.3656,-5.3661,-5.3668,-5.3675,-5.3856,0,0,-5.3695,-5.3698,0,0,0,0,0,0,0,0,-5.3726,-5.3734,-5.3771,-5.3765,-5.3756,-5.3754,-5.3794,-5.3852,-5.3678,-5.3705,-5.366,-5.3652,-5.37,-5.3703,-5.3719,-5.3856,-5.3856,-5.3696,-5.37,-5.3703,-5.3704,0,0,0,0,0,0,0,-5.3723,-5.3733,-5.3847,-5.3772,-5.3763,-5.3719,-5.3718,-5.3805,-5.3742,-5.3702,-5.3689,-5.3692,-5.3695,-5.3713,-5.3718,-5.3856,-5.3695,-5.3701,-5.3705,-5.3708,-5.4141,-5.4148,0,0,0,0,0,0,-5.3732,-5.3732,-5.3847,-5.3847,-5.3724,-5.3728,-5.3726,-5.3762,-5.374,-5.373,-5.3698,-5.3684,-5.3705,-5.3711,-5.3718,-5.3927,-5.3702,-5.3709,-5.3713,-5.4134,-5.4143,-5.4151,0,0,0,0,0,0,-5.3729,-5.3744,-5.3846,-5.3786,-5.3796,-5.3738,-5.378,-5.3766,-5.3784,-5.3737,-5.3725,-5.3729,-5.37,-5.3708,-5.3823,-5.3925,-5.3712,-5.3718,-5.4125,-5.4137,-5.4147,-5.4349,0,0,0,0,0,0,-5.3726,-5.3744,-5.3813,-5.3789,-5.38,-5.3952,-5.3786,-5.3771,-5.3796,-5.3778,-5.3763,-5.3754,-5.3695,-5.3814,-5.3829,-5.393,-5.3723,-5.4115,-5.413,-5.4143,-5.4333,-5.4366,-5.4394,0,0,0,0,0,-5.372,-5.3869,-5.3817,-5.3832,-5.3884,-5.3958,-5.3964,-5.3894,-5.3805,-5.3873,-5.3843,-5.3754,-5.3912,-5.3827,-5.3843,-5.3948,-5.4109,-5.4126,-5.4142,-5.4319,-5.4359,-5.4393,0,0,0,0,0,0,-5.3906,-5.3865,-5.3806,-5.3952,-5.396,-5.3929,-5.4012,-5.3939,-5.3973,-5.3954,-5.3865,-5.3864,-5.3992,-5.3981,-5.3887,-5.4121,-5.3994,-5.4015,-5.4123,-5.4161,-5.4191,-5.419,-5.3729,0,0,0,0,0,-5.3964,-5.4028,-5.3989,-5.4121,-5.4128,-5.4071,-5.41,-5.4045,-5.405,-5.4053,-5.4031,-5.4039,-5.409,-5.4125,-5.417,-5.4331,-5.4325,-5.4411,-5.4442,-5.4467,-5.4485,-5.4569,-5.4606,-5.4206,-5.4206,-5.4206,0,0,-5.4084,-5.407,-5.4115,-5.4158,-5.4158,-5.4226,-5.4074,-5.4152,-5.4202,-5.4064,-5.417,-5.4156,-5.4158,-5.4297,-5.4357,-5.4292,-5.4595,-5.4489,-5.4509,-5.4513,-5.459,-5.4628,-5.4662,-5.4218,-5.4216,-5.4214,0,0,-5.4337,-5.4334,-5.4443,-5.4446,-5.4448,-5.4409,-5.4435,-5.4416,-5.44,-5.4506,-5.4404,-5.4461,-5.4552,-5.4557,-5.4572,-5.483,-5.4748,-5.4847,-5.5005,-5.5088,-5.5119,-5.5146,-5.5236,-5.527,-5.4866,-5.4866,-5.4867,0,-5.4486,-5.4584,-5.4508,-5.4593,-5.4614,-5.4494,-5.4604,-5.4611,-5.4628,-5.4645,-5.4572,-5.4683,-5.4677,-5.4814,-5.4877,-5.4894,-5.4921,-5.4847,-5.5121,-5.5148,-5.5172,-5.5257,-5.5291,-5.4878,-5.4877,-5.4876,-5.4874,0,-5.4766,-5.4836,-5.4924,-5.4943,-5.4975,-5.5072,-5.501,-5.5052,-5.4995,-5.4964,-5.5072,-5.5061,-5.5101,-5.513,-5.5076,-5.5261,-5.522,-5.5136,-5.5006,-5.5223,-5.5301,-5.5333,-5.4895,-5.4891,-5.4887,-5.4884,0,0,-5.5133,-5.511,-5.5144,-5.5151,-5.5145,-5.5197,-5.5289,-5.5328,-5.5365,-5.5381,-5.5455,-5.5535,-5.5457,-5.5474,-5.542,-5.5493,-5.5695,-5.5399,-5.5398,-5.5453,-5.5897,-5.5958,-5.5997,-5.5643,-5.5649,-5.5653,-5.5896,0,-5.5377,-5.5532,-5.5467,-5.5628,-5.5691,-5.5579,-5.5658,-5.5664,-5.5637,-5.5687,-5.5657,-5.5715,-5.5609,-5.5618,-5.5685,-5.5657,-5.5783,-5.5638,-5.5709,-5.5713,-5.5709,-5.6038,-5.6103,-5.6332,-5.5926,-5.5931,-5.5935,0,-5.5681,-5.571,-5.5878,-5.586,-5.5884,-5.5958,-5.5988,-5.6037,-5.6041,-5.6016,-5.6037,-5.5966,-5.6054,-5.5928,-5.6048,-5.5951,-5.5977,-5.5967,-5.5975,-5.5976,-5.5835,-5.6046,-5.6404,-5.6437,-5.5982,-5.5979,-5.5975,0,-5.593,-5.6011,-5.6121,-5.6131,-5.6114,-5.6168,-5.6164,-5.616,-5.6188,-5.6215,-5.6232,-5.627,-5.629,-5.632,-5.6261,-5.6175,-5.639,-5.6258,-5.6371,-5.6373,-5.6419,-5.6416,-5.6783,-5.644,-5.644,-5.6439,-5.6438,0,-5.6207,-5.6314,-5.6232,-5.63,-5.6416,-5.6341,-5.6458,-5.6441,-5.6439,-5.6501,-5.6408,-5.6468,-5.6388,-5.6441,-5.6396,-5.6501,-5.6512,-5.6494,-5.648,-5.65,-5.6503,-5.6514,-5.6496,-5.6448,-5.6446,-5.6444,-5.6443,0,-5.6503,-5.6453,-5.6566,-5.6541,-5.6538,-5.6624,-5.6602,-5.6664,-5.6632,-5.6712,-5.6726,-5.6676,-5.6733,-5.6678,-5.6732,-5.6702,-5.6843,-5.6807,-5.6842,-5.683,-5.6945,-5.6935,-5.733,-5.7377,-5.7007,-5.7011,-5.7014,0,-5.6682,-5.6761,-5.6745,-5.678,-5.6782,-5.6839,-5.6867,-5.6797,-5.683,-5.684,-5.6901,-5.695,-5.6985,-5.7082,-5.705,-5.7091,-5.7054,-5.719,-5.7059,-5.7078,-5.7053,-5.7048,-5.7055,-5.7216,-5.722,-5.7224,-5.7227,0,-5.7004,-5.6975,-5.7019,-5.7056,-5.7091,-5.7116,-5.7134,-5.7168,-5.7095,-5.7137,-5.7194,-5.7222,-5.7278,-5.7328,-5.7359,-5.7353,-5.7279,-5.7269,-5.7296,-5.7317,-5.7332,-5.7323,-5.6911,-5.7259,-5.7256,-5.7253,-5.7252,-5.725,-5.7244,-5.7309,-5.7308,-5.736,-5.7366,-5.7385,-5.7441,-5.7417,-5.7464,-5.7503,-5.7459,-5.7529,-5.7531,-5.7565,-5.7569,-5.7623,-5.7565,-5.7606,-5.7616,-5.7627,-5.7643,-5.7327,-5.7629,-5.7628,-5.7627,-5.7626,-5.7625,0,-5.756,-5.7554,-5.7603,-5.763,-5.7671,-5.7598,-5.7614,-5.7653,-5.7716,-5.7724,-5.7761,-5.7827,-5.7876,-5.7848,-5.789,-5.7938,-5.7904,-5.7951,-5.7945,-5.7945,-5.7692,-5.7663,-5.7977,-5.7977,-5.7977,-5.7977,-5.7977,-5.7977,-5.7728,-5.7833,-5.7806,-5.7913,-5.7906,-5.7974,-5.7989,-5.8006,-5.8012,-5.809,-5.813,-5.8112,-5.8106,-5.8146,-5.8187,-5.8178,-5.8196,-5.8255,-5.8234,-5.7998,-5.7963,-5.793,-5.7902,-5.826,-5.8261,-5.8481,-5.8483,-5.8484]},{"header":{"parameterUnit":"m.s-1","parameterCategory":1,"la1":30.2991,"la2":30.254,"lo1":-89.0895,"lo2":-89.0444,"dy":0.0017,"dx":0.0017,"nx":28,"ny":28,"refTime":"2023-10-02T03:00:00:Z","depth":0,"parameterNumber":3,"parameterNumberName":"V-component_of_WINDS"},"data":[0,0,0,0,0,0,0,0,0,0,0,0,0,0,0,0,0,0,0,0,0,0,0,0,0,0,0,0,0,0,0,0,0,0,0,0,0,0,0,0,0,0,0,0,0,0,0,0,0,0,0,0,0,0,0,0,0,0,1.0164,1.0164,0,1.0145,1.0145,1.0145,1.0178,1.018,1.0181,1.0182,1.0157,1.0155,1.0153,0,0,0,0,0,0,0,0,0,0,0,0,0,1.0227,1.0225,1.0164,1.0164,1.0164,1.0145,1.0145,1.0145,1.0178,1.018,1.0181,1.0182,1.0157,1.0155,1.0153,0,0,0,0,0,0,0,0,0,0,0,0,0,1.0203,1.0225,1.0164,1.0178,1.018,1.0145,1.0145,1.0144,1.0178,1.018,1.0181,1.0183,1.0158,1.0156,1.0153,1.0102,0,0,1.0145,1.0144,0,0,0,0,0,0,0,0,1.0204,1.02,1.0177,1.0177,1.0179,1.0166,1.0158,1.013,1.0178,1.0178,1.0182,1.0184,1.0158,1.0156,1.0148,1.0101,1.01,1.0145,1.0143,1.0142,1.0141,0,0,0,0,0,0,0,1.0206,1.0201,1.0156,1.0176,1.0177,1.0185,1.0183,1.0153,1.0158,1.0178,1.0181,1.0178,1.0159,1.015,1.0148,1.0099,1.0145,1.0142,1.0141,1.014,1.0011,1.0009,0,0,0,0,0,0,1.0206,1.0202,1.0157,1.0156,1.0196,1.0182,1.0181,1.0168,1.0159,1.0159,1.0177,1.018,1.0154,1.0151,1.0147,1.0087,1.0142,1.014,1.0138,1.0013,1.0011,1.0009,0,0,0,0,0,0,1.0207,1.0202,1.0158,1.018,1.0175,1.0179,1.0165,1.0167,1.0158,1.0158,1.0159,1.0167,1.0155,1.0151,1.0114,1.0086,1.0138,1.0136,1.0015,1.0012,1.001,0.9966,0,0,0,0,0,0,1.0209,1.0202,1.0183,1.0179,1.0174,1.0125,1.0164,1.0165,1.0154,1.0158,1.0149,1.0149,1.0156,1.0117,1.0111,1.0084,1.0134,1.0017,1.0014,1.001,0.997,0.9962,0.9956,0,0,0,0,0,1.0211,1.017,1.0182,1.0176,1.015,1.0124,1.012,1.0131,1.0152,1.0133,1.0133,1.015,1.0091,1.0113,1.0106,1.0078,1.0019,1.0015,1.0011,0.9973,0.9964,0.9956,0,0,0,0,0,0,1.0168,1.017,1.0183,1.014,1.0132,1.013,1.0105,1.012,1.0105,1.0108,1.0121,1.0119,1.0079,1.0075,1.01,1.0029,1.0059,1.0053,1.0032,1.0023,1.0016,1.0017,1.0132,0,0,0,0,0,1.0154,1.0134,1.0136,1.0098,1.0093,1.01,1.0089,1.0098,1.009,1.0086,1.0083,1.0073,1.0052,1.0038,1.0019,0.9971,0.9969,0.9948,0.9941,0.9935,0.9929,0.9904,0.9894,0.9995,0.9995,0.9995,0,0,1.0123,1.0122,1.0108,1.0089,1.0084,1.0062,1.0097,1.0071,1.0054,1.0081,1.0046,1.0045,1.0034,0.9991,0.9972,0.9987,0.9902,0.993,0.9925,0.9922,0.9899,0.9889,0.988,0.9992,0.9993,0.9993,0,0,1.0057,1.0054,1.0022,1.0018,1.001,1.0016,1.0008,1.0005,1.0005,0.9971,0.9991,0.9971,0.9936,0.9928,0.9919,0.9853,0.9867,0.9846,0.9808,0.9783,0.9775,0.9768,0.9743,0.9735,0.9841,0.9841,0.9841,0,1.0019,0.9988,1.0004,0.9977,0.9968,0.9995,0.9962,0.9956,0.9942,0.9935,0.9953,0.991,0.9905,0.9861,0.9845,0.9837,0.9828,0.9846,0.9775,0.9768,0.9762,0.9739,0.9729,0.9838,0.9839,0.9839,0.9839,0,0.9942,0.992,0.9895,0.9883,0.9872,0.9842,0.9853,0.984,0.9851,0.9855,0.982,0.9816,0.9796,0.9787,0.9797,0.9745,0.9754,0.9773,0.9803,0.9749,0.9728,0.9719,0.9835,0.9836,0.9836,0.9837,0,0,0.9843,0.9844,0.9834,0.983,0.9826,0.9808,0.9781,0.9765,0.9753,0.9743,0.9719,0.9691,0.9709,0.9699,0.9709,0.9687,0.9635,0.9709,0.9709,0.9694,0.9577,0.9561,0.955,0.9646,0.9644,0.9643,0.9577,0,0.9776,0.973,0.9745,0.9698,0.9677,0.9704,0.968,0.9675,0.9678,0.9661,0.9664,0.9643,0.9669,0.9664,0.9644,0.9645,0.9611,0.965,0.9622,0.9621,0.9621,0.9539,0.9522,0.946,0.9569,0.9567,0.9566,0,0.969,0.968,0.9632,0.9633,0.9625,0.9603,0.959,0.9574,0.9568,0.9573,0.9563,0.9578,0.955,0.9583,0.9544,0.9571,0.9561,0.956,0.9558,0.9553,0.9588,0.9531,0.9441,0.943,0.9553,0.9555,0.9555,0,0.9622,0.9596,0.9564,0.956,0.9561,0.9545,0.9544,0.9541,0.9531,0.9519,0.9513,0.9498,0.9489,0.9477,0.9487,0.951,0.9447,0.948,0.9448,0.9448,0.9431,0.9431,0.9336,0.9428,0.9428,0.9428,0.9429,0,0.9544,0.9513,0.9534,0.9514,0.948,0.9498,0.9464,0.9466,0.9463,0.9443,0.9466,0.9446,0.9462,0.9444,0.9452,0.9419,0.9415,0.9417,0.9419,0.9413,0.9413,0.9405,0.9408,0.9426,0.9427,0.9427,0.9427,0,0.946,0.9474,0.944,0.9445,0.9446,0.942,0.9424,0.9405,0.9412,0.9387,0.9382,0.9391,0.9371,0.9382,0.936,0.9366,0.9323,0.9331,0.9325,0.9326,0.9293,0.9296,0.9187,0.9174,0.9276,0.9275,0.9275,0,0.9409,0.9386,0.9389,0.9379,0.9377,0.936,0.9351,0.9369,0.9358,0.9352,0.9333,0.9316,0.9303,0.927,0.9274,0.9258,0.9266,0.9229,0.9263,0.9259,0.9263,0.9264,0.9261,0.9221,0.922,0.9219,0.9218,0,0.9315,0.9324,0.931,0.93,0.9289,0.9281,0.9275,0.9264,0.9283,0.9269,0.9251,0.9241,0.9221,0.9203,0.919,0.9188,0.9205,0.9208,0.92,0.9193,0.9189,0.9189,0.9304,0.921,0.921,0.9211,0.9212,0.9212,0.9245,0.9226,0.9226,0.9211,0.9209,0.9204,0.9187,0.9193,0.9178,0.9164,0.9176,0.9154,0.9151,0.9135,0.9132,0.9114,0.9128,0.9116,0.9113,0.9109,0.9104,0.9195,0.9112,0.9112,0.9112,0.9112,0.9113,0,0.9151,0.9154,0.914,0.9132,0.912,0.9141,0.9136,0.9124,0.9105,0.9102,0.909,0.9068,0.9052,0.9057,0.9042,0.9027,0.9034,0.9022,0.9022,0.9021,0.9092,0.9101,0.9016,0.9016,0.9016,0.9016,0.9016,0.9016,0.9101,0.9071,0.908,0.9049,0.9051,0.9031,0.9026,0.9021,0.9019,0.8995,0.8982,0.8987,0.8986,0.8972,0.8958,0.896,0.8952,0.8937,0.8941,0.9007,0.9016,0.9025,0.9033,0.8936,0.8935,0.8871,0.8871,0.887]}]]